Location: Robert Brownlee Observatory
(34.2308°N, 117.2089°W)
Time: 20:05:45
(UTC-07:00)

Cosmos 1943 - Visible Passes

Search period start: 29 June 2016 00:00
Search period end: 09 July 2016 00:00
Orbit: 832 x 852 km, 71.0° (Epoch: 29 June)

Date Brightness Start Highest point End Pass type
(mag) Time Alt. Az. Time Alt. Az. Time Alt. Az.
29 Jun 5.0 00:15:06 10° N 00:19:17 21° ENE 00:19:56 20° ENE visible
29 Jun 4.2 01:58:09 10° NNW 02:01:43 35° WNW 02:01:43 35° WNW visible
30 Jun 5.1 00:00:15 10° NNE 00:04:17 20° ENE 00:04:54 19° ENE visible
30 Jun 4.3 01:43:09 10° NNW 01:46:41 36° NW 01:46:41 36° NW visible
30 Jun 5.1 23:45:24 10° NNE 23:49:17 19° ENE 23:49:55 18° ENE visible
01 Jul 4.3 01:28:09 10° NNW 01:31:43 37° NW 01:31:43 37° NW visible
01 Jul 5.1 23:30:33 10° NNE 23:34:17 18° ENE 23:34:59 17° ENE visible
02 Jul 4.2 01:13:10 10° NNW 01:16:47 38° NW 01:16:47 38° NW visible
02 Jul 5.2 23:15:43 10° NNE 23:19:16 17° NE 23:20:05 16° ENE visible
03 Jul 4.2 00:58:11 10° NNW 01:01:53 40° NW 01:01:53 40° NW visible
03 Jul 5.2 23:00:54 10° NNE 23:04:16 16° NE 23:05:14 15° ENE visible
04 Jul 4.1 00:43:12 10° NNW 00:47:02 43° NW 00:47:02 43° NW visible
04 Jul 5.2 22:46:05 10° NNE 22:49:16 15° NE 22:50:25 14° ENE visible
05 Jul 4.0 00:28:13 10° NNW 00:32:13 46° NW 00:32:13 46° NW visible
05 Jul 5.2 22:31:18 10° NNE 22:34:15 14° NE 22:35:37 13° ENE visible
06 Jul 3.9 00:13:14 10° NNW 00:17:26 50° NW 00:17:26 50° NW visible
06 Jul 5.3 22:16:32 10° NNE 22:19:15 13° NE 22:20:52 12° ENE visible
06 Jul 3.7 23:58:16 10° NNW 00:02:41 55° NW 00:02:41 55° NW visible
07 Jul 5.3 22:01:48 10° NNE 22:04:14 13° NE 22:06:09 11° ENE visible
07 Jul 3.5 23:43:18 10° NNW 23:47:58 61° NW 23:47:58 61° NW visible
08 Jul 5.3 21:47:07 10° NNE 21:49:13 12° NE 21:51:20 10° ENE visible
08 Jul 3.4 23:28:19 10° NNW 23:33:16 69° NNW 23:33:16 69° NNW visible
